User: anonymous   Login
Location: Radomski Observatory
(40.2854°N, 79.5145°W)
Time: 00:41:38
(UTC-04:00)
Language:

Cosmos 1072 Rocket - Orbit

View from above orbital plane
View from above orbital plane
View from above satellite
View from above satellite

Ground track
Ground track

The orbit data is extracted from the following two-line orbital elements,

1 11239U 79003B   18111.44815503  .00000063  00000-0  49316-4 0  9993
2 11239  82.9410 219.7446 0039495 250.9818 178.5715 13.75823906970248
Epoch (UTC): 21 April 2018 10:45:20
Eccentricity: 0.0039495
inclination: 82.9410°
perigee height: 949 km
apogee height: 1008 km
right ascension of ascending node: 219.7446°
argument of perigee: 250.9818°
revolutions per day: 13.75823906
mean anomaly at epoch: 178.5715°
orbit number at epoch: 97024

The dashed part of the orbit path shows where the satellite is in the earth's shadow,  

DLR